When you browse on this site, cookies collect data to enhance your experience and personalize the content and advertising you see.
Visit our Privacy Policy to learn more. By continuing to use the site, you agree to this use of cookies and data.
  • In United Kingdom
  • List of Countries
  • For 7 days
  • Water Temperature
  • Satellite Maps
  • Weather Map
  • Weather Widgets
  • user-avatar
    Login

    Hourly Weather Makoua

    Today, 25 April, Thursday

    Time Temperature Precipitation Wind Pressure Humidity
    00:00 +28°C° 0 mm 1 mps 726 mmHg 67%
    01:00 +28°C° 0 mm 1 mps 726 mmHg 71%
    02:00 +27°C° 0.4 mm 1 mps 726 mmHg 76%
    03:00 +26°C° 0.4 mm 1 mps 726 mmHg 81%
    04:00 +25°C° 0.4 mm 1 mps 726 mmHg 86%
    05:00 +26°C° 0 mm 2 mps 726 mmHg 86%
    06:00 +26°C° 0 mm 2 mps 726 mmHg 86%
    07:00 +26°C° 0 mm 2 mps 727 mmHg 86%
    08:00 +29°C° 0 mm 2 mps 727 mmHg 73%
    09:00 +32°C° 0 mm 2 mps 727 mmHg 60%
    10:00 +36°C° 0 mm 2 mps 727 mmHg 47%
    11:00 +39°C° 0 mm 1 mps 727 mmHg 40%
    12:00 +42°C° 0 mm 1 mps 726 mmHg 34%
    13:00 +41°C° 0 mm 0 mps 726 mmHg 27%
    14:00 +39°C° 0 mm 0 mps 725 mmHg 30%
    15:00 +38°C° 0 mm 0 mps 724 mmHg 34%
    16:00 +36°C° 0 mm 0 mps 723 mmHg 37%
    17:00 +34°C° 0 mm 0 mps 724 mmHg 40%
    18:00 +33°C° 0 mm 0 mps 724 mmHg 43%
    19:00 +31°C° 0 mm 0 mps 724 mmHg 46%
    20:00 +30°C° 0 mm 0 mps 724 mmHg 50%
    21:00 +30°C° 0 mm 0 mps 725 mmHg 53%
    22:00 +31°C° 0 mm 1 mps 725 mmHg 57%
    23:00 +30°C° 0.7 mm 1 mps 725 mmHg 66%

    Tomorrow, 26 April, Friday

    Time Temperature Precipitation Wind Pressure Humidity
    00:00 +26°C° 0.7 mm 0 mps 725 mmHg 75%
    01:00 +25°C° 0.7 mm 0 mps 725 mmHg 85%
    02:00 +27°C° 0.3 mm 1 mps 725 mmHg 87%
    03:00 +26°C° 0.3 mm 1 mps 725 mmHg 90%
    04:00 +26°C° 0.3 mm 1 mps 725 mmHg 92%
    05:00 +26°C° 0.4 mm 1 mps 725 mmHg 92%
    06:00 +26°C° 0.4 mm 1 mps 725 mmHg 93%
    07:00 +26°C° 0.4 mm 1 mps 726 mmHg 93%
    08:00 +28°C° 0 mm 1 mps 726 mmHg 83%
    09:00 +30°C° 0 mm 1 mps 726 mmHg 74%
    10:00 +32°C° 0 mm 1 mps 727 mmHg 64%
    11:00 +34°C° 0 mm 1 mps 726 mmHg 56%
    12:00 +36°C° 0 mm 1 mps 726 mmHg 47%
    13:00 +39°C° 0 mm 1 mps 725 mmHg 39%
    14:00 +37°C° 0 mm 1 mps 725 mmHg 42%
    15:00 +36°C° 0 mm 1 mps 724 mmHg 45%
    16:00 +33°C° 0 mm 0 mps 723 mmHg 48%
    17:00 +33°C° 0.6 mm 1 mps 724 mmHg 60%
    18:00 +31°C° 0.6 mm 1 mps 724 mmHg 71%
    19:00 +29°C° 0.6 mm 1 mps 724 mmHg 82%
    20:00 +28°C° 0.5 mm 1 mps 724 mmHg 85%
    21:00 +27°C° 0.5 mm 1 mps 725 mmHg 88%
    22:00 +26°C° 0.5 mm 1 mps 725 mmHg 91%
    23:00 +26°C° 0.1 mm 1 mps 725 mmHg 91%

    Day after tomorrow, 27 April, Saturday

    Time Temperature Precipitation Wind Pressure Humidity
    00:00 +24°C° 0.1 mm 0 mps 725 mmHg 92%
    01:00 +23°C° 0.1 mm 0 mps 725 mmHg 92%
    02:00 +25°C° 0 mm 1 mps 724 mmHg 92%
    03:00 +25°C° 0 mm 1 mps 724 mmHg 93%
    04:00 +24°C° 0 mm 1 mps 724 mmHg 93%
    05:00 +25°C° 0 mm 1 mps 724 mmHg 91%
    06:00 +25°C° 0 mm 1 mps 725 mmHg 89%
    07:00 +25°C° 0 mm 1 mps 725 mmHg 88%
    08:00 +29°C° 0 mm 1 mps 726 mmHg 75%
    09:00 +32°C° 0 mm 1 mps 726 mmHg 61%
    10:00 +35°C° 0 mm 1 mps 727 mmHg 48%
    11:00 +36°C° 0 mm 1 mps 726 mmHg 43%
    12:00 +39°C° 0 mm 1 mps 725 mmHg 38%
    13:00 +40°C° 0 mm 1 mps 724 mmHg 33%
    14:00 +40°C° 0 mm 1 mps 723 mmHg 32%
    15:00 +40°C° 0 mm 1 mps 723 mmHg 31%
    16:00 +40°C° 0 mm 1 mps 722 mmHg 30%
    17:00 +36°C° 0 mm 1 mps 722 mmHg 37%
    18:00 +34°C° 0 mm 1 mps 723 mmHg 43%
    19:00 +29°C° 0 mm 0 mps 723 mmHg 50%
    20:00 +28°C° 0 mm 0 mps 723 mmHg 53%
    21:00 +30°C° 0 mm 1 mps 724 mmHg 57%
    22:00 +29°C° 0 mm 1 mps 725 mmHg 60%
    23:00 +28°C° 0 mm 1 mps 724 mmHg 66%

    28 April, Sunday

    Time Temperature Precipitation Wind Pressure Humidity
    00:00 +28°C° 0 mm 1 mps 724 mmHg 71%
    01:00 +27°C° 0 mm 1 mps 724 mmHg 77%
    02:00 +27°C° 0 mm 1 mps 724 mmHg 80%
    03:00 +27°C° 0 mm 1 mps 724 mmHg 83%
    04:00 +26°C° 0 mm 1 mps 723 mmHg 87%
    05:00 +27°C° 0 mm 1 mps 724 mmHg 85%
    06:00 +27°C° 0 mm 1 mps 725 mmHg 83%
    07:00 +28°C° 0 mm 1 mps 725 mmHg 80%
    08:00 +30°C° 0 mm 1 mps 726 mmHg 68%
    09:00 +33°C° 0 mm 1 mps 726 mmHg 56%
    10:00 +36°C° 0 mm 1 mps 726 mmHg 44%
    11:00 +36°C° 0 mm 1 mps 725 mmHg 43%
    12:00 +34°C° 0 mm 0 mps 725 mmHg 42%
    13:00 +35°C° 0 mm 0 mps 724 mmHg 41%
    14:00 +35°C° 0 mm 0 mps 723 mmHg 42%
    15:00 +34°C° 0 mm 0 mps 723 mmHg 42%
    16:00 +34°C° 0 mm 0 mps 723 mmHg 43%
    17:00 +33°C° 0 mm 0 mps 723 mmHg 48%
    18:00 +31°C° 0 mm 0 mps 724 mmHg 53%
    19:00 +31°C° 0 mm 1 mps 724 mmHg 58%
    20:00 +30°C° 0.5 mm 1 mps 725 mmHg 67%
    21:00 +28°C° 0.5 mm 1 mps 725 mmHg 77%
    22:00 +27°C° 0.5 mm 1 mps 725 mmHg 86%
    23:00 +27°C° 0 mm 1 mps 725 mmHg 88%

    29 April, Monday

    Time Temperature Precipitation Wind Pressure Humidity
    00:00 +27°C° 0 mm 1 mps 725 mmHg 89%
    01:00 +26°C° 0 mm 1 mps 724 mmHg 90%
    02:00 +26°C° 0 mm 1 mps 724 mmHg 91%
    03:00 +26°C° 0 mm 1 mps 724 mmHg 91%
    04:00 +26°C° 0 mm 1 mps 725 mmHg 92%
    05:00 +26°C° 0.3 mm 1 mps 725 mmHg 91%
    06:00 +26°C° 0.3 mm 1 mps 726 mmHg 90%
    07:00 +26°C° 0.3 mm 1 mps 727 mmHg 89%
    08:00 +27°C° 2.3 mm 1 mps 727 mmHg 86%
    09:00 +28°C° 2.3 mm 1 mps 727 mmHg 84%
    10:00 +29°C° 2.3 mm 1 mps 727 mmHg 82%
    11:00 +31°C° 0.2 mm 2 mps 727 mmHg 72%
    12:00 +34°C° 0.2 mm 2 mps 726 mmHg 62%
    13:00 +35°C° 0.2 mm 2 mps 725 mmHg 52%
    14:00 +35°C° 0.5 mm 2 mps 725 mmHg 55%
    15:00 +33°C° 0.5 mm 1 mps 725 mmHg 59%
    16:00 +33°C° 0.5 mm 1 mps 725 mmHg 62%
    17:00 +31°C° 1.6 mm 1 mps 725 mmHg 73%
    18:00 +26°C° 1.6 mm 0 mps 725 mmHg 84%
    19:00 +24°C° 1.6 mm 0 mps 726 mmHg 94%
    20:00 +24°C° 0 mm 0 mps 726 mmHg 95%
    21:00 +24°C° 0 mm 0 mps 726 mmHg 95%
    22:00 +26°C° 0 mm 1 mps 726 mmHg 96%
    23:00 +26°C° 0 mm 1 mps 726 mmHg 95%

    30 April, Tuesday

    Time Temperature Precipitation Wind Pressure Humidity
    00:00 +26°C° 0 mm 1 mps 726 mmHg 95%
    01:00 +25°C° 0 mm 1 mps 726 mmHg 95%
    02:00 +25°C° 0 mm 1 mps 726 mmHg 94%
    03:00 +25°C° 0 mm 1 mps 725 mmHg 94%
    04:00 +25°C° 0 mm 1 mps 725 mmHg 94%
    05:00 +25°C° 0 mm 1 mps 726 mmHg 93%
    06:00 +25°C° 0 mm 1 mps 727 mmHg 92%
    07:00 +25°C° 0 mm 1 mps 727 mmHg 91%
    08:00 +27°C° 0 mm 1 mps 727 mmHg 82%
    09:00 +29°C° 0 mm 1 mps 728 mmHg 73%
    10:00 +31°C° 0 mm 1 mps 728 mmHg 65%
    11:00 +33°C° 0 mm 1 mps 727 mmHg 57%
    12:00 +35°C° 0 mm 1 mps 726 mmHg 50%
    13:00 +37°C° 0 mm 1 mps 726 mmHg 42%
    14:00 +36°C° 0 mm 1 mps 725 mmHg 44%
    15:00 +35°C° 0 mm 1 mps 725 mmHg 46%
    16:00 +33°C° 0 mm 0 mps 724 mmHg 48%
    17:00 +31°C° 0 mm 0 mps 725 mmHg 53%
    18:00 +30°C° 0 mm 0 mps 725 mmHg 59%
    19:00 +28°C° 0 mm 0 mps 725 mmHg 64%
    20:00 +27°C° 0 mm 0 mps 725 mmHg 68%
    21:00 +27°C° 0 mm 0 mps 725 mmHg 71%
    22:00 +26°C° 0 mm 0 mps 725 mmHg 74%
    23:00 +26°C° 0.4 mm 0 mps 725 mmHg 79%
    Show more